www.pogodaiklimat.ru

Погода и климат >> Архив погоды >> Алжир >> Bordj Badji Mokhtar


ПОГОДА в Bordj Badji Mokhtar

  • Прогноз погоды в Bordj Badji Mokhtar
  • Монитор погоды в Bordj Badji Mokhtar
  • Климат города

АРХИВ ПОГОДЫ в Bordj Badji Mokhtar

Время (UTC), дата Ветер
(напр.,м/с)
 
Видим.   Явления Облачность Т
(С)
Тd
(С)
f
(%)
Тe
(С)
Тes
(С)
Комфортность P
(гПа)
Po
(гПа)
Тmin
(С)
Tmax
(С)
R
(мм)
R24
(мм)
S
(см)
18 16.06 С 6 8000 м ясно +44.0 1005.1 1005.0 +45.8
06 17.06 В 8 10 км 8/4 1380 м
[Cu med, cong Ac trans]
+32.2 +0.3 13 +29 +29 жарко 1008.1 1008.0 +31.2
09 17.06 С 9 10 км 3/0
[Ac trans]
+37.8 +4.2 13 +35 +36 очень
жарко
1009.3 1009.0
12 17.06 СВ 14 2000 м пыльный позёмок ясно +45.1 +40 +40 очень
жарко
1007.0 1007.0
15 17.06 СВ 5 6000 м 3/3 1380 м
[Cu med, cong]
+46.2 +5.7 9 +43 +48 опасность
перегрева
1004.8 1005.0
18 17.06 СВ 11 2000 м пыльный позёмок 4/0
[Ac trans]
+43.5 +5.3 10 +41 +41 опасность
перегрева
1005.8 1006.0 +47.5
06 18.06 С 5 4000 м пыль ясно +34.5 -2.9 9 +31 +31 жарко 1008.1 1008.0 +34.5
09 18.06 СВ 11 2500 м пыльный позёмок ясно +41.5 +2.3 9 +38 +38 очень
жарко
1008.2 1008.0
12 18.06 СВ 13 3000 м пыльный позёмок ясно +43.8 +4.0 9 +41 +41 опасность
перегрева
1007.6 1008.0
15 18.06 С 6 6000 м ясно +45.9 1005.0 1005.0
18 18.06 СВ 9 4000 м пыльный позёмок 3/0
[Ac trans Ci sp]
+44.2 1004.7 1005.0 +47.0
06 19.06 С 4 10 км ясно +30.2 -0.2 14 +27 +28 жарко 1006.9 1007.0 +30.1
09 19.06 СВ 10 10 км ясно +39.5 +3.9 11 +36 +37 очень
жарко
1007.7 1008.0
12 19.06 СВ 11 6000 м пыльный позёмок ясно +44.5 +4.5 9 +41 +42 опасность
перегрева
1005.8 1006.0
15 19.06 С 10 6000 м пыльный позёмок ясно +46.2 +41 +41 опасность
перегрева
1003.7 1004.0
18 19.06 С 10 10 км ясно +44.1 +39 +39 очень
жарко
1003.7 1004.0 +46.2
06 20.06 СВ 5 8000 м ясно +31.2 +1.1 15 +28 +29 жарко 1006.2 1006.0 +31.0
09 20.06 СВ 11 7000 м пыльный позёмок ясно +39.5 +1.4 9 +36 +36 очень
жарко
1007.0 1007.0
12 20.06 СВ 10 7000 м пыльный позёмок ясно +44.2 1006.0 1006.0
15 20.06 СВ 7 10 км ясно +44.2 1004.2 1004.0
18 20.06 С 9 10 км ясно +43.2 +4.5 10 +40 +40 очень
жарко
1004.7 1005.0 +45.4
06 21.06 СВ 5 10 км ясно +27.9 +0.5 17 +26 +26 жарко 1007.0 1007.0 +27.7
09 21.06 СВ 12 2000 м пыльный позёмок ясно +38.7 +5.4 13 +36 +36 очень
жарко
1008.1 1008.0
12 21.06 СВ 10 2000 м пыльный позёмок ясно +43.4 +38 +39 очень
жарко
1007.3 1007.0
15 21.06 СВ 9 7000 м пыльный позёмок ясно +44.0 +39 +40 очень
жарко
1005.8 1006.0
18 21.06 С 8 10 км ясно +42.5 +37 +38 очень
жарко
1006.2 1006.0 +45.0
06 22.06 штиль 0 10 км 4/4 1500 м
[Cu med, cong]
+29.7 +1.5 16 +27 +28 жарко 1007.6 1008.0 +29.4
09 22.06 ЮВ 4 10 км ясно +37.4 +1.7 11 +34 +42 очень
жарко
1008.5 1009.0
12 22.06 ЮВ 6 10 км ясно +43.0 1007.2 1007.0
15 22.06 СЗ 5 10 км ясно +44.7 1005.3 1005.0
18 22.06 штиль 0 10 км ясно +43.0 1005.2 1005.0 +45.5
06 23.06 С 4 10 км 1/0
[Ci sp]
+31.7 -2.0 11 +28 +29 жарко 1006.5 1007.0 +31.0
09 23.06 Ю 7 4500 м пыль ясно +38.0 +3.3 12 +35 +38 очень
жарко
1008.0 1008.0
12 23.06 Ю 3 3000 м пыль ясно +42.2 +10.3 15 +41 +61 опасность
перегрева
1007.4 1007.0
15 23.06 штиль 0 3000 м пыль 3/3 1380 м
[Cu med, cong]
+44.0 +9.8 13 +42 +54 опасность
перегрева
1005.3 1005.0

 

Местоположение метеостанции Bordj Badji Mokhtar (Алжир): широта 21.33 долгота 0.95 высота над уровнем моря 399 м.

В архиве по умолчанию представлена погода в Bordj Badji Mokhtar за последнюю неделю. Архивные данные за месяц целиком и за предыдущие месяцы, начиная с января 2011 года, Вы можете получить, выбрав интересующий диапазон дат из раскрывающегося списка и нажав кнопку "Ввод!".


*Определитесь, кто Вы:
робот инопланетянин человек

Внимание! Время в таблицах - всемирное. Для получения местного времени необходимо прибавить поправку, которая в Bordj Badji Mokhtar равна 1 ч.

Смотрите также архив погоды в соседних городах и на ближайших метеорологических станциях:

Погода в In Ziza (Алжир) (288 км)
Погода в Abankor (Алжир) (414 км)
Погода в Anesbaraka (Алжир) (440 км)
Погода в Tamanrasset (Алжир) (490 км)
Погода в Arak (Алжир) (523 км)
Погода в Assekrem (Алжир) (528 км)
Погода в Moulay Lachen (Алжир) (537 км)
Погода в In Guezzam (Алжир) (537 км)
Погода в In Guezzam (Алжир) (537 км)
Погода в Mertouek (Алжир) (572 км)

Пояснения к столбцам:

Ветер - указаны скорость ветра в м/с - средняя за 10 мин, порывы в срок и между сроками (в фигурных скобках) и направление, откуда дует ветер: С - северный, СВ - северо-восточный, В - восточный, ЮВ - юго-восточный, Ю - южный, ЮЗ - юго-западный, З - западный, СЗ - северо-западный.
Видимость - горизонтальная дальность видимости в метрах или километрах. При видимости от 1 до 10 км при отсутствии осадков обычно наблюдается дымка, при ухудшении видимости до 1 км и менее - туман. В сухую погоду видимость может ухудшаться дымом, пылью или мглою.
Явления - указаны атмосферные явления, наблюдавшиеся в срок или в последний час перед сроком; фигурными скобками обозначены явления, наблюдавшиеся между сроками (за 1-3 часа до срока); квадратными скобками обозначены град или гололедные отложения с указанием их диаметра в мм.
Облачность - указаны через наклонную черту общая и нижняя облачность в баллах и высота нижней границы облаков в метрах; квадратными скобками обозначены формы облаков: Ci - перистые, Cs - перисто-слоистые, Cc - перисто-кучевые, Ac - высококучевые, As - высокослоистые, Sc - слоисто-кучевые, Ns - слоисто-дождевые, Cu - кучевые, Cb - кучево-дождевые. Подробнее классификацию облаков см. в Атласе облаков (PDF).
T - Температура воздуха - температура, измеренная на высоте 2 м над землей.
Td - Температура точки росы - температура, при понижении до которой содержащийся в воздухе водяной пар достигнет насыщения.
f - Относительная влажность воздуха - влажноcть воздуха, измеренная на высоте 2 м над землей.
Te - Эффективная температура - температура, которую ощущает одетый по сезону человек в тени. Характеристика душности погоды. При расчете учитывается влияние влажности воздуха и скорости ветра на теплоощущения человека.
Tes - Эффективная температура на солнце - температура, которую ощущает человек, с поправкой на солнечный нагрев. Характеристика знойности погоды. Зависит от высоты солнца над горизонтом, облачности и скорости ветра. Ночью, в пасмурную погоду, а также при ветре 12 м/с и более поправка равна нулю.
P - Атмосферное давление - приведенное к уровню моря атмосферное давление.
Po - Атмосферное давление - измеренное на уровне метеостанции атмосферное давление.
Tmin - Минимальная температура - минимум температуры воздуха на высоте 2 м над землей.
Tmax - Максимальная температура - максимум температуры воздуха на высоте 2 м над землей.
R - Количество осадков - Количество выпавших осадков за период времени, мм. При наведении курсора мыши на число - период времени, за который выпало указанное количество осадков.
R24 - Количество осадков - Количество выпавших осадков за 24 часа, мм.
S - Снежный покров - Высота снежного покрова, см. При наведении курсора мыши на число - состояние снежного покрова и степень покрытия местности в баллах.